GFSNIL_prec_cthk_000.txt.gz
RH
58 58 58 57 55 54 64 67 72 73 71 75 84 85 92 86 96 98 90 81 80 76
55 55 55 52 50 48 52 60 67 77 88 89 97 98 95 94 92 90 86 80 75 71
54 52 52 49 50 55 60 67 75 86 94 98 96 94 92 88 85 81 77 73 70 66
51 50 49 51 58 64 68 75 84 85 86 89 88 85 84 81 77 74 70 65 61 52
50 51 55 59 64 70 73 76 80 82 85 79 75 72 69 66 60 53 47 42 38 35
52 53 56 60 69 73 76 79 85 82 77 74 69 63 54 47 42 38 34 28 24 24
52 58 59 66 71 78 84 90 86 80 77 69 57 47 40 34 27 24 26 29 32 34
58 65 69 74 77 87 95 88 83 79 69 59 50 36 25 25 28 29 32 33 34 35
71 79 84 89 95 93 92 89 87 73 56 42 30 25 27 31 33 35 36 36 38 43
84 88 92 91 90 91 89 86 72 54 41 29 26 29 32 36 36 36 37 44 56 63
87 92 91 89 86 88 85 67 51 40 31 28 28 29 32 34 36 40 50 65 71 74
90 95 91 89 81 74 61 48 40 33 29 28 28 32 34 39 43 53 70 79 83 84
93 89 82 77 67 56 48 40 33 30 30 30 31 31 39 46 62 76 80 84 86 89
84 76 67 59 54 47 39 34 33 30 31 32 30 36 45 67 81 83 85 86 88 92

GFSNIL_prec_cthk_003.txt.gz
RH
54 54 53 51 48 45 42 42 43 47 56 65 68 78 70 74 84 91 92 95 98 91
50 48 45 46 45 42 42 44 49 55 61 66 71 77 87 97 96 98 96 93 89 86
44 39 39 42 44 47 51 55 60 65 69 78 86 86 89 89 88 88 88 87 85 80
38 36 38 43 46 52 56 61 66 71 75 79 76 75 79 75 72 71 70 66 62 59
41 37 40 41 44 53 63 73 78 75 74 76 79 78 72 67 63 58 53 49 47 45
39 38 42 50 55 60 72 81 84 86 87 87 82 75 69 62 55 48 47 43 38 33
47 50 58 65 68 72 81 89 92 93 89 83 76 67 61 54 46 40 34 30 28 28
63 59 67 71 74 83 91 96 94 90 87 81 72 60 51 46 40 36 30 28 27 29
66 74 81 86 89 97 95 96 96 92 86 77 62 53 48 41 34 28 25 24 25 28
83 75 86 91 96 95 94 93 91 86 77 58 51 45 38 32 27 24 24 28 32 37
80 76 87 95 92 89 87 84 76 64 56 49 42 36 31 27 24 23 28 36 46 62
84 81 87 84 81 77 72 67 60 55 46 39 34 31 28 25 24 28 36 56 73 76
88 83 75 69 65 61 59 54 46 41 38 35 32 30 28 29 30 40 59 77 80 82
73 63 59 57 56 50 43 39 39 39 36 34 33 31 32 33 44 62 81 85 86 89

GFSNIL_prec_cthk_006.txt.gz
RH
55 53 49 42 40 38 38 35 30 31 34 38 43 49 57 65 71 78 91 84 96 92
58 50 48 48 44 41 43 43 44 46 50 56 57 61 71 80 89 89 98 89 93 98
55 55 48 43 40 44 47 48 53 57 58 65 69 71 75 82 81 79 86 87 86 85
60 50 42 39 39 41 45 47 52 59 66 76 77 78 75 75 79 80 75 71 66 61
61 53 50 44 43 44 51 57 61 73 85 82 81 82 84 82 79 75 70 65 58 53
55 56 57 48 48 52 60 69 79 85 91 94 92 91 88 83 76 66 59 55 53 50
58 58 54 56 54 62 72 83 88 96 98 97 95 90 84 74 65 59 55 53 50 45
64 66 63 63 64 71 85 95 98 98 98 97 94 91 82 68 60 57 52 45 39 34
64 63 68 72 81 90 97 97 96 93 91 90 85 76 69 64 59 51 43 35 28 24
69 67 71 78 84 92 92 89 88 85 79 72 68 64 60 54 46 38 32 26 23 24
75 68 75 82 82 77 73 69 68 65 63 60 55 53 48 42 34 29 26 27 28 36
67 69 74 66 62 59 59 59 56 53 49 45 41 40 35 32 28 28 28 32 42 57
76 65 57 53 53 53 49 43 39 39 42 44 43 41 37 35 33 32 35 44 64 80
67 58 52 49 45 39 38 38 41 42 46 50 50 45 41 40 41 40 46 71 85 88

GFSNIL_prec_cthk_009.txt.gz
RH
65 61 56 54 53 53 48 44 45 47 48 45 42 45 45 49 54 60 67 69 75 80
54 55 54 58 55 48 46 46 50 53 55 60 58 63 68 69 75 76 81 85 87 95
61 60 63 51 49 50 50 53 55 62 63 66 71 74 78 78 83 77 76 76 79 82
65 62 55 51 49 48 49 59 61 66 71 78 81 86 85 84 86 87 83 79 76 72
59 56 53 48 48 55 59 60 64 71 75 84 88 91 93 94 92 90 86 79 72 67
56 54 54 58 60 61 65 67 70 77 84 92 96 96 95 92 91 89 82 69 61 59
61 64 67 67 69 69 76 78 82 88 93 95 94 94 92 89 85 79 69 66 64 61
68 72 71 69 71 75 83 85 91 92 92 92 89 85 83 78 71 68 65 60 57 53
68 62 58 61 64 73 80 81 78 76 74 72 70 68 66 64 63 60 58 56 50 44
52 55 60 64 64 62 58 56 56 57 57 56 55 53 52 52 51 50 47 44 40 37
62 63 66 63 59 55 54 54 51 44 39 37 39 41 41 41 40 41 39 36 34 36
67 69 65 60 56 49 40 34 34 34 36 40 40 42 44 42 44 43 40 38 39 43
77 69 66 53 40 35 34 34 34 40 47 50 51 52 49 47 45 42 43 42 44 53
80 73 49 40 38 35 35 39 49 54 59 61 60 55 49 48 50 50 49 49 55 75

GFSNIL_prec_cthk_015.txt.gz
RH
67 65 60 54 52 50 48 47 48 48 50 50 54 64 63 63 66 68 64 62 68 76
68 66 63 57 55 47 44 46 49 42 45 52 51 52 56 65 72 69 68 70 71 75
71 68 58 50 50 49 44 45 44 45 50 51 55 60 65 69 74 79 84 88 89 90
64 59 57 54 53 47 46 41 48 51 59 60 62 69 77 83 90 92 95 97 95 96
55 59 61 53 49 47 42 51 59 62 65 75 79 84 94 96 95 97 98 98 97 96
60 56 46 47 45 46 49 52 59 67 77 85 89 87 81 84 86 89 93 93 94 92
48 45 44 48 51 53 55 61 64 66 66 69 69 66 64 62 57 60 64 71 73 74
44 43 51 53 53 55 60 63 66 68 64 55 47 50 38 35 32 32 37 39 44 48
47 50 54 54 56 57 64 68 66 53 48 49 47 44 37 36 38 40 41 45 44 48
54 56 55 59 60 68 71 64 51 52 50 48 47 49 47 48 48 48 49 53 56 56
56 57 60 65 68 77 69 57 53 51 49 52 57 59 52 51 53 57 64 66 68 64
61 63 66 73 81 73 58 55 53 49 53 56 59 66 68 68 67 74 75 75 73 68
63 69 72 80 87 62 55 54 48 52 58 61 70 78 78 78 76 73 73 71 75 74
79 82 80 89 75 56 55 57 55 57 61 72 80 81 85 86 83 87 86 80 79 79

GFSNIL_prec_cthk_021.txt.gz
RH
54 52 51 52 50 43 35 34 36 33 30 34 37 40 44 46 46 47 49 51 58 64
57 53 52 46 36 33 37 39 36 28 28 36 41 44 46 47 50 58 63 69 72 83
55 49 39 34 35 37 40 40 28 28 33 38 43 47 53 59 62 67 75 79 82 85
43 36 34 34 33 35 35 27 30 34 36 42 46 50 56 60 59 58 58 60 59 52
43 45 46 40 34 38 38 34 32 35 41 47 51 56 56 52 48 44 48 49 48 43
54 60 56 51 50 57 66 48 42 39 43 52 55 53 51 50 45 47 49 49 46 42
54 61 56 64 65 83 80 66 63 54 51 64 52 48 46 45 47 48 46 47 48 48
46 57 61 68 83 80 86 80 74 67 64 73 54 45 46 47 51 51 51 54 57 58
48 60 64 71 90 95 96 89 80 70 76 69 49 52 55 56 55 55 58 61 63 65
44 53 60 67 87 84 97 85 72 79 84 61 54 62 61 57 55 65 74 77 77 75
36 44 51 57 87 97 97 89 74 88 72 57 63 60 55 56 70 81 89 91 89 83
42 44 49 54 63 95 87 82 85 66 57 59 54 52 50 63 81 90 90 89 85 83
50 53 56 64 67 76 80 72 51 53 53 53 51 50 55 78 87 84 87 90 93 95
57 62 72 84 87 73 59 49 52 52 53 52 49 49 65 79 78 81 87 93 96 98

GFSNIL_prec_cthk_024.txt.gz
RH
56 58 57 51 42 31 31 31 33 34 25 22 22 25 29 32 36 39 45 50 57 64
60 57 51 41 34 34 37 39 38 35 28 26 27 28 30 32 37 41 48 53 59 68
54 44 36 37 40 46 45 45 44 43 37 43 41 41 44 40 44 49 54 50 52 56
42 36 38 39 40 43 49 53 57 66 67 60 60 58 51 50 44 48 47 48 51 52
39 40 40 43 41 43 50 59 76 84 76 70 76 70 61 51 43 42 45 48 49 46
42 44 49 50 50 50 70 76 92 92 87 79 74 75 61 49 43 42 45 46 47 46
41 49 55 53 58 56 66 74 81 86 88 90 85 73 57 52 45 48 51 51 49 49
52 49 43 38 42 46 50 59 82 95 89 89 82 69 62 44 48 50 49 49 55 62
40 29 27 32 34 38 48 58 78 98 89 87 79 69 52 50 48 45 48 58 72 80
26 29 31 33 37 48 56 63 98 96 94 81 65 52 48 45 45 45 62 76 77 74
32 32 32 41 46 54 70 74 80 82 69 58 52 48 44 43 43 59 75 73 73 78
36 35 40 54 62 69 75 74 63 57 53 49 47 44 42 40 47 68 74 78 82 87
36 39 52 63 74 79 68 57 55 52 49 47 45 44 42 39 58 68 72 83 92 96
40 47 59 67 78 66 52 48 48 50 50 47 46 44 41 41 64 70 79 88 94 96

GFSNIL_prec_cthk_027.txt.gz
RH
54 51 50 47 41 34 30 30 30 36 44 48 46 43 39 44 44 44 44 40 44 42
48 47 44 37 33 32 34 36 40 42 49 51 59 64 60 60 58 57 49 48 44 39
45 39 34 34 36 41 43 45 49 55 57 64 69 68 73 72 72 66 57 53 44 45
34 34 36 40 43 46 49 57 60 53 59 76 80 89 78 79 74 68 58 51 45 47
35 36 38 39 42 50 52 51 49 50 54 75 81 84 87 84 77 72 60 57 51 48
36 38 41 41 37 31 30 30 33 42 56 64 75 87 88 79 78 66 58 57 53 48
41 40 36 33 30 27 27 32 40 49 54 66 81 90 88 83 77 55 58 54 48 44
37 32 32 32 31 25 30 39 44 55 69 75 82 84 89 73 54 52 48 45 43 52
31 32 33 31 24 27 36 43 52 66 77 71 73 68 55 52 47 46 43 41 53 63
36 36 34 27 27 34 46 57 64 63 60 55 55 51 49 45 45 41 40 47 60 62
40 34 29 30 35 44 54 62 67 58 51 52 50 48 44 42 39 38 40 59 63 74
33 32 34 37 47 54 62 71 62 53 50 50 51 46 43 38 37 38 48 65 74 85
36 37 38 41 52 62 67 63 54 49 49 49 47 46 41 37 38 39 51 69 83 91
40 39 42 46 54 58 57 54 51 49 49 46 49 46 41 38 40 43 54 70 84 93

GFSNIL_prec_cthk_030.txt.gz
RH
53 49 47 41 36 35 33 32 33 36 41 45 44 45 49 53 61 59 59 59 61 56
53 50 44 40 37 37 37 39 45 45 48 51 58 68 63 69 70 73 70 68 68 59
52 45 42 43 44 39 40 45 49 50 46 44 46 55 64 69 73 79 76 69 66 66
44 44 46 44 40 40 40 35 28 29 35 38 46 54 60 60 67 76 77 77 72 60
48 47 44 40 37 36 30 28 26 31 41 45 49 52 56 67 81 80 81 83 59 48
46 41 36 33 31 30 28 25 26 37 45 43 55 60 70 78 82 77 70 52 49 45
41 34 32 31 31 30 27 26 32 38 39 48 57 63 65 65 59 51 49 47 43 41
35 34 34 34 31 28 29 32 38 41 48 59 57 55 49 48 47 45 43 40 37 38
36 37 36 32 31 33 34 37 44 50 54 61 49 43 47 45 45 43 38 34 35 37
40 37 33 34 36 37 36 42 50 56 61 60 45 46 46 44 43 38 35 36 37 46
37 34 36 38 37 39 43 50 59 63 60 49 45 46 43 43 40 36 36 38 40 56
36 36 37 37 37 42 47 55 60 59 54 51 48 45 43 43 40 37 37 40 45 62
38 38 36 37 40 45 50 53 55 54 53 52 47 45 43 46 41 37 38 42 47 63
38 37 39 41 46 49 53 51 53 55 55 49 45 44 46 49 43 39 40 44 47 59

GFSNIL_prec_cthk_033.txt.gz
RH
64 60 55 50 50 48 46 44 41 40 41 41 40 37 46 44 49 51 53 51 55 59
66 59 55 53 49 46 43 38 36 33 27 26 32 34 44 41 50 52 56 51 59 61
63 58 56 51 46 42 36 33 30 26 24 27 34 44 52 46 49 55 56 62 65 66
61 57 51 48 41 33 30 30 29 26 27 32 41 47 53 47 52 57 64 67 70 63
58 53 48 39 33 34 35 31 28 28 30 37 43 46 50 53 56 60 62 63 56 49
54 47 38 38 38 37 32 30 30 32 35 39 43 46 55 58 55 55 52 49 47 44
46 41 41 42 40 33 32 31 31 36 40 43 50 55 61 52 42 44 46 46 43 38
44 44 44 42 34 34 33 33 34 38 42 47 53 58 59 42 42 43 43 42 36 34
46 46 43 36 34 33 35 35 36 39 46 53 58 60 45 43 43 41 40 38 35 34
47 43 37 34 33 33 34 37 40 45 52 55 52 46 47 43 41 40 40 38 35 37
43 38 36 35 34 33 34 37 42 48 53 54 51 50 48 43 41 40 42 38 37 41
40 38 36 34 35 34 35 41 45 48 49 51 52 51 45 42 40 43 43 39 42 45
37 36 35 36 35 36 40 46 52 54 52 51 54 51 45 43 43 46 44 42 43 46
35 34 35 34 36 40 46 50 54 55 53 52 50 50 47 45 47 51 45 42 42 41

GFSNIL_prec_cthk_036.txt.gz
RH
62 68 67 58 56 56 56 53 47 42 37 39 39 40 42 53 57 61 50 62 61 62
65 64 58 54 54 55 49 45 41 40 39 38 39 41 44 53 56 55 51 48 58 62
68 61 56 54 54 50 43 38 37 35 34 35 38 39 44 47 51 59 48 54 59 63
63 57 53 53 50 43 39 38 38 37 36 36 39 41 40 42 54 55 53 56 56 58
57 53 53 51 45 42 42 41 40 39 39 40 40 42 44 44 52 59 62 52 52 53
57 54 50 48 47 47 44 42 40 37 36 36 37 43 46 53 60 63 49 45 47 49
55 50 51 49 48 45 42 40 38 36 35 36 40 46 50 56 61 53 46 44 42 43
54 52 51 49 46 43 37 38 36 35 36 39 42 44 49 54 46 48 43 41 41 41
55 51 50 46 42 40 38 41 40 43 43 43 45 44 44 44 45 47 43 42 41 44
51 50 48 44 40 39 37 40 39 41 44 46 50 47 46 46 45 46 43 42 44 47
54 50 47 43 40 36 35 38 41 41 45 49 50 49 48 47 47 47 45 45 49 47
53 49 45 42 38 35 36 42 43 46 52 54 54 48 48 45 48 48 47 50 49 42
51 47 42 40 37 36 40 43 45 52 54 55 55 52 49 46 49 48 50 51 44 42
47 42 41 39 38 42 42 45 50 51 55 55 56 55 49 48 48 49 54 46 41 42

GFSNIL_prec_cthk_039.txt.gz
RH
63 71 77 68 66 58 59 55 52 50 49 47 46 44 44 48 50 53 66 67 66 56
68 66 65 62 56 59 51 50 47 48 47 45 43 42 42 45 50 51 62 63 64 53
70 72 62 56 55 49 48 48 48 45 42 40 41 41 43 44 42 43 50 60 60 57
81 63 54 53 50 49 50 49 44 43 41 42 41 39 33 39 44 48 52 54 61 63
74 59 54 51 54 53 50 47 45 43 44 43 36 37 38 39 40 46 52 58 63 65
62 58 56 55 56 56 51 48 44 48 46 45 42 40 40 43 46 51 56 62 59 51
60 60 55 58 59 54 51 49 51 49 46 44 43 45 46 47 48 50 50 52 49 47
61 56 55 60 58 56 52 51 53 48 46 46 45 43 41 42 43 42 46 49 47 47
59 57 60 62 58 55 54 55 51 54 48 44 44 41 43 44 43 41 45 47 49 47
60 61 64 61 59 57 54 53 50 46 45 44 50 44 47 46 43 45 47 49 50 50
66 68 65 64 60 55 57 52 49 48 43 46 53 49 50 47 46 48 50 50 50 53
73 68 64 59 57 59 52 47 46 44 46 54 57 53 55 51 50 50 51 50 53 56
66 65 57 55 57 53 48 46 43 45 49 55 60 56 55 53 53 51 51 52 58 52
64 55 55 51 49 50 48 47 43 44 50 57 61 63 57 55 55 53 54 51 57 51

GFSNIL_prec_cthk_042.txt.gz
RH
62 64 65 69 69 73 62 51 50 46 43 42 44 42 39 37 38 40 47 54 56 65
62 62 65 66 74 74 61 52 43 43 42 46 46 43 42 43 43 46 48 46 43 50
63 65 67 71 72 66 60 44 42 46 48 49 47 49 45 42 42 41 39 40 45 52
66 69 69 69 72 69 52 44 48 51 52 52 50 47 45 42 38 35 38 42 46 50
68 75 69 73 72 59 49 51 53 54 53 52 54 48 39 36 37 33 37 45 46 50
71 76 66 77 63 53 56 59 58 55 54 61 54 46 41 38 42 44 46 46 46 46
71 78 68 68 61 61 60 61 59 59 60 56 50 44 44 50 47 47 45 38 40 40
75 70 76 67 59 63 67 62 62 62 63 57 49 49 47 48 45 43 39 34 41 43
77 78 71 61 69 74 68 64 67 64 61 52 50 45 45 47 48 45 39 38 43 43
83 69 66 75 76 70 69 66 63 57 56 49 49 46 46 49 51 48 41 44 47 46
83 75 77 76 74 71 71 66 59 60 56 55 53 48 50 54 55 53 45 49 49 48
80 82 82 71 68 70 65 66 63 55 54 52 52 49 53 58 61 53 47 49 49 51
85 75 70 74 67 65 64 62 59 55 51 49 44 48 56 65 58 49 50 51 51 48
82 80 72 70 69 62 58 57 56 50 43 45 45 50 58 66 57 51 51 53 50 51

GFSNIL_prec_cthk_045.txt.gz
RH
55 58 63 67 70 70 72 75 75 79 69 59 39 39 44 46 47 46 44 44 45 49
59 63 69 69 69 72 73 68 69 68 61 48 40 47 51 51 50 48 47 46 45 44
61 66 68 67 73 78 80 70 60 64 53 46 53 54 54 54 49 44 43 42 42 43
70 73 76 73 71 75 89 80 54 51 50 56 58 57 54 51 47 46 46 43 40 43
77 82 77 78 80 78 79 58 56 57 62 60 61 57 59 52 49 48 49 46 43 39
85 76 78 76 77 78 69 62 60 66 67 61 61 62 62 53 57 59 52 45 41 37
74 77 74 77 74 80 75 66 67 75 62 67 68 66 63 57 58 54 52 49 42 34
73 73 75 79 89 79 72 74 78 67 73 68 71 71 64 59 62 59 54 48 40 36
71 75 78 87 84 78 80 82 75 74 70 76 67 64 62 58 56 55 50 49 41 42
76 77 93 89 85 87 85 75 80 79 76 64 62 63 58 51 52 52 51 52 46 46
81 93 92 92 91 83 83 81 81 75 69 63 62 57 54 50 54 54 58 61 52 47
94 93 94 88 85 84 80 76 73 71 66 58 57 58 58 50 48 53 61 61 50 47
96 93 89 89 82 80 73 66 63 62 63 62 60 54 47 46 51 57 62 59 48 52
94 92 83 77 74 66 63 59 58 54 52 51 46 44 47 52 54 58 57 57 54 55

GFSNIL_prec_cthk_048.txt.gz
RH
52 54 58 61 63 70 75 75 92 71 83 81 81 71 47 42 44 50 51 50 50 48
58 60 70 70 80 77 87 80 83 82 81 83 77 56 50 48 54 57 55 53 52 51
71 80 84 84 86 86 90 86 86 88 80 67 55 48 53 56 60 58 55 53 51 53
78 82 87 93 84 93 94 82 81 79 62 58 53 62 66 59 64 61 56 56 55 56
74 89 88 92 91 92 86 80 84 76 67 57 65 69 61 71 69 68 64 61 61 58
87 83 96 74 76 87 77 82 79 76 78 69 70 69 75 71 77 75 65 67 66 62
78 85 71 74 85 79 76 79 82 85 69 74 77 76 82 78 79 73 68 67 68 65
81 74 74 78 80 82 83 88 86 76 79 81 83 82 76 76 78 76 68 66 65 59
80 73 80 82 88 90 94 91 86 86 88 83 79 78 76 73 69 65 61 61 57 55
77 80 84 90 91 95 92 92 90 83 81 80 75 69 63 66 63 58 51 50 52 57
79 87 91 93 92 94 91 85 81 78 73 67 61 59 55 54 49 46 48 51 57 61
90 91 95 97 94 88 83 76 70 62 55 51 48 47 45 43 44 45 48 55 61 62
92 96 93 87 80 70 66 54 47 41 41 39 36 40 45 45 45 47 52 57 58 56
92 84 77 65 57 51 41 33 29 29 31 34 38 42 46 49 48 51 56 61 61 64

GFSNIL_prec_cthk_054.txt.gz
RH
71 72 69 66 64 66 68 79 82 89 90 92 93 97 96 91 77 74 67 60 61 64
64 62 64 64 67 72 80 82 89 89 83 94 98 95 88 85 76 71 65 63 70 72
60 60 68 66 74 83 85 87 88 86 98 94 97 87 89 85 77 70 72 76 74 76
68 68 79 87 88 91 94 91 93 97 97 94 89 86 90 84 82 80 77 80 79 72
82 88 89 90 94 90 91 95 93 86 93 87 88 93 91 86 80 82 83 76 67 60
86 88 91 93 91 89 86 87 96 96 83 92 93 91 90 83 85 79 71 57 45 30
86 88 93 95 92 87 86 87 95 87 96 92 93 91 86 87 80 69 42 30 27 28
83 90 91 88 83 81 86 90 86 84 94 97 97 94 87 77 62 31 25 25 28 31
69 79 78 70 77 82 83 80 93 98 97 97 95 79 63 44 28 24 25 27 32 34
65 78 75 79 81 77 83 90 94 96 95 83 66 51 37 25 22 24 26 32 36 40
74 75 75 78 84 92 97 95 96 92 74 53 41 25 20 20 22 25 30 37 43 46
70 73 82 91 93 94 97 96 85 65 45 28 21 20 20 22 25 30 36 44 51 53
77 86 93 94 97 97 91 73 52 32 23 20 18 21 23 27 32 35 41 50 57 59
86 87 88 85 79 73 57 38 24 19 17 18 19 21 26 31 38 43 50 55 57 59

GFSNIL_prec_cthk_057.txt.gz
RH
87 82 75 68 74 84 85 82 76 78 84 86 86 84 92 93 97 91 83 80 75 68
87 86 80 73 82 83 77 79 86 89 92 90 90 95 89 91 90 85 84 77 72 74
78 75 72 81 81 82 78 84 92 94 92 94 95 95 94 86 83 90 81 78 77 72
77 77 83 85 83 89 94 96 93 97 98 97 94 97 93 95 95 87 82 78 73 66
80 85 91 91 91 94 95 97 97 93 94 95 98 95 97 97 86 85 80 75 64 51
80 86 87 86 95 96 98 97 98 92 92 91 97 98 94 91 85 79 73 64 48 29
77 79 83 93 96 89 90 92 87 85 93 97 96 88 93 91 83 74 58 40 29 23
59 65 72 77 76 72 73 77 83 89 83 86 95 95 94 88 73 57 38 28 24 24
58 61 59 60 59 75 72 81 77 90 91 96 96 96 88 76 55 32 27 23 24 26
50 52 55 67 75 69 75 75 92 93 93 95 96 84 67 49 31 25 23 22 25 29
54 64 67 66 69 78 83 89 95 98 97 89 78 62 45 28 23 21 21 23 27 32
63 65 69 73 79 85 87 90 91 84 74 63 45 34 27 24 23 23 23 27 32 39
61 69 76 84 86 84 78 73 67 57 43 32 26 22 21 22 24 26 29 32 40 47
70 73 75 71 67 65 58 47 36 28 23 21 19 18 20 23 30 34 36 39 41 45

GFSNIL_prec_cthk_060.txt.gz
RH
75 86 86 82 83 85 80 79 89 90 89 85 81 84 91 90 94 94 90 87 84 80
64 73 78 84 82 87 83 84 95 93 86 85 91 95 92 94 97 98 91 88 84 81
61 62 70 79 87 86 88 93 92 89 91 94 94 96 95 93 97 96 93 91 85 86
56 58 70 77 85 89 93 93 95 93 96 96 93 96 96 96 95 94 94 93 88 80
56 62 72 78 85 91 91 91 99 98 98 97 90 93 94 97 94 92 95 90 84 76
61 64 70 78 84 85 95 98 97 93 98 96 87 83 97 89 86 88 90 84 81 71
61 61 61 61 61 66 75 76 87 77 76 77 75 90 95 91 92 90 89 83 69 58
62 58 56 55 59 64 67 65 63 69 75 74 83 89 94 97 97 91 84 70 57 48
57 58 57 56 57 59 61 62 68 78 77 80 86 92 97 96 88 76 65 52 41 39
50 47 46 49 53 60 66 68 70 77 82 87 89 91 82 68 57 49 42 40 38 39
44 48 51 56 62 65 66 70 75 80 81 81 75 64 53 44 37 35 31 31 36 36
52 54 55 59 63 69 71 75 79 76 68 59 51 41 34 31 28 29 29 32 37 38
54 55 59 63 66 66 63 61 57 49 42 35 32 29 26 26 28 30 33 31 34 35
60 63 62 61 58 52 47 41 36 34 34 33 34 33 30 30 31 30 28 28 28 32

GFSNIL_prec_cthk_063.txt.gz
RH
74 71 69 75 78 86 80 80 85 93 92 91 97 98 99 96 93 94 92 96 98 95
74 69 65 70 71 68 71 76 88 94 97 96 96 98 97 94 96 97 94 95 95 91
66 67 71 70 68 69 74 81 86 92 94 93 98 98 96 94 96 93 98 96 95 90
66 64 68 70 72 73 79 81 85 91 88 98 99 97 97 98 95 93 97 98 94 90
54 58 63 67 74 71 73 75 76 75 81 95 93 94 96 94 94 96 90 94 91 85
57 63 68 66 64 63 65 70 67 66 77 91 79 80 79 72 76 76 82 80 84 92
66 66 64 67 67 66 65 61 63 67 65 70 68 69 73 75 75 76 81 91 95 88
69 70 72 75 74 66 60 63 64 64 61 64 70 70 74 75 80 84 88 86 78 63
79 76 73 67 62 59 58 60 61 63 64 69 69 71 78 82 81 78 69 61 51 49
67 62 55 51 46 48 53 55 62 66 68 71 75 78 77 69 59 53 46 42 43 42
53 47 43 45 49 53 57 60 65 69 72 72 69 66 55 45 41 39 39 37 40 41
43 42 43 47 51 55 59 62 65 64 63 58 53 48 42 37 35 36 36 35 33 34
43 46 48 52 56 56 57 57 56 51 45 42 41 44 42 38 37 34 33 29 28 25
47 49 54 55 55 53 49 46 46 40 44 46 45 44 42 36 30 27 23 20 18 19

GFSNIL_prec_cthk_069.txt.gz
RH
58 63 63 66 65 60 55 59 66 73 76 79 78 79 80 79 77 78 74 92 97 97
60 60 62 61 67 74 71 71 83 89 86 87 81 76 75 76 79 69 72 93 93 93
54 63 73 66 71 76 80 92 79 88 85 89 80 75 73 70 75 64 70 78 83 82
60 60 65 73 84 93 93 90 82 79 80 75 71 72 76 77 67 67 63 64 67 72
75 76 89 97 95 86 73 72 69 74 68 71 74 77 79 66 63 57 66 70 73 69
77 91 78 76 75 80 73 72 72 76 77 77 77 76 62 56 64 64 72 67 69 73
66 71 77 77 70 66 68 76 78 81 81 76 68 60 56 59 64 63 67 69 69 76
53 58 62 62 66 70 80 80 79 80 73 65 58 53 61 62 66 68 70 71 75 74
49 54 56 61 75 83 81 76 74 67 60 52 52 58 62 65 65 67 71 70 61 48
53 56 64 72 72 73 65 60 58 52 46 50 54 57 61 64 66 64 56 46 40 40
52 58 60 59 54 52 50 51 50 46 49 51 54 59 61 60 53 45 38 37 39 39
54 52 50 50 51 51 50 44 44 47 50 52 55 57 54 46 42 39 41 42 40 36
48 50 50 50 49 44 43 45 46 48 50 50 50 49 46 44 46 45 42 38 35 36
50 51 51 47 42 42 44 47 50 49 46 46 46 47 48 50 47 42 38 37 39 38

GFSNIL_prec_cthk_072.txt.gz
RH
46 49 58 62 64 66 62 55 54 54 62 75 88 88 87 81 81 76 78 72 69 65
52 59 66 64 66 67 72 74 74 71 76 90 91 94 89 82 79 77 78 77 71 62
59 59 67 74 75 78 74 75 76 85 90 88 93 92 91 80 79 83 80 68 57 58
59 59 61 65 72 82 94 95 95 86 83 93 91 84 81 84 83 81 65 68 61 59
85 87 86 78 87 94 92 91 78 83 86 89 85 84 84 85 76 69 62 60 59 67
68 87 90 96 94 91 81 67 72 76 85 88 85 87 84 79 70 63 58 60 66 66
46 57 83 79 78 74 68 67 74 82 86 82 81 86 81 76 63 57 64 63 67 67
45 49 59 59 63 63 62 70 79 87 87 86 81 80 73 64 63 64 64 68 69 70
41 48 51 52 58 59 67 73 80 81 80 77 73 65 55 53 61 63 67 69 68 70
43 47 50 54 56 61 68 73 76 70 65 64 61 52 55 60 63 66 65 67 63 51
46 49 55 59 60 65 68 64 60 60 58 54 50 55 59 60 62 62 60 50 43 39
50 55 57 61 59 54 54 54 52 54 51 49 52 54 56 58 56 50 43 42 42 44
57 58 52 48 52 53 53 53 52 48 47 50 53 55 54 49 44 42 43 47 48 44
51 52 53 51 51 52 53 53 51 50 50 52 53 50 47 45 45 49 51 50 48 45

GFSNIL_prec_cthk_078.txt.gz
RH
45 48 49 50 50 52 53 55 56 58 59 60 59 57 60 61 70 82 89 95 95 94
47 53 55 57 57 56 55 56 58 60 58 54 54 58 58 67 72 81 93 92 91 92
48 51 52 53 54 56 56 58 62 58 60 65 69 77 76 79 85 85 91 95 95 98
48 51 52 52 52 51 56 57 60 70 80 88 91 92 88 96 93 91 94 92 92 98
71 71 66 64 64 64 63 72 75 80 93 91 83 81 85 88 91 90 90 90 94 97
79 83 77 69 53 58 65 82 85 86 85 87 89 71 70 77 80 81 87 89 97 94
65 79 78 76 60 57 62 80 84 79 75 72 73 74 75 79 86 85 87 85 91 88
53 64 69 72 73 61 57 59 66 79 87 77 75 73 76 81 79 78 88 84 85 83
43 53 65 70 66 61 54 53 56 63 72 76 66 66 75 79 85 84 85 81 77 70
44 53 59 59 56 52 50 52 52 56 63 70 72 72 77 79 79 79 75 73 72 67
45 49 54 56 54 52 55 50 51 57 62 66 69 72 75 74 74 76 74 71 70 67
46 51 56 63 60 58 57 60 63 67 69 73 75 70 70 71 73 71 70 68 65 66
52 56 60 55 52 60 63 67 71 72 70 69 69 70 72 73 74 73 71 70 70 72
57 57 56 58 63 66 70 70 71 72 73 73 73 73 74 75 75 77 78 80 83 85

GFSNIL_prec_cthk_081.txt.gz
RH
52 55 55 55 53 53 51 49 49 51 54 55 56 57 60 60 61 62 65 66 79 86
49 49 47 46 48 47 49 49 50 52 55 57 57 61 63 62 62 64 66 74 73 81
45 47 49 50 48 49 50 50 50 52 55 58 61 66 67 64 69 71 76 79 77 88
45 47 49 48 50 50 53 53 55 58 60 64 69 71 66 79 86 89 94 95 86 87
49 49 50 52 54 54 56 57 60 63 65 66 65 74 86 92 93 89 92 95 96 95
66 66 65 70 69 60 57 60 57 63 72 78 83 88 88 95 91 83 77 81 83 81
53 49 55 69 69 64 56 59 61 66 79 86 89 86 83 82 79 76 73 76 83 82
48 50 56 59 67 72 73 71 66 63 63 68 79 84 84 79 78 77 79 80 78 76
42 43 47 55 62 71 77 77 67 59 58 59 61 71 79 79 79 75 79 78 80 79
43 44 47 53 63 70 71 70 65 64 59 60 61 63 71 75 76 78 77 77 78 77
46 47 45 48 56 62 63 64 62 59 61 59 57 63 69 74 76 76 78 79 76 72
48 47 51 50 52 57 61 63 60 61 57 59 63 69 72 77 81 84 82 79 79 80
50 47 53 59 60 61 61 59 58 59 64 68 72 77 80 82 80 78 80 85 89 90
53 53 57 59 61 64 64 68 71 74 79 79 79 77 80 83 85 86 87 88 89 89

GFSNIL_prec_cthk_084.txt.gz
RH
63 67 69 71 69 69 67 64 65 63 62 60 60 62 64 64 64 64 61 64 68 70
52 55 56 58 59 62 60 61 61 58 55 55 57 59 60 59 61 65 66 64 64 67
49 51 52 53 52 54 56 57 57 55 54 56 56 59 60 60 63 69 68 64 69 74
49 51 51 52 52 53 56 56 57 56 57 57 58 59 62 64 65 72 75 70 83 89
51 55 57 58 58 60 62 63 59 58 60 65 67 67 69 70 70 71 73 81 92 88
52 51 53 57 54 62 62 63 64 65 65 65 66 66 67 70 72 74 78 89 87 88
57 57 57 58 56 65 72 69 65 64 63 57 59 63 68 72 77 83 80 82 79 79
47 48 44 44 49 59 62 63 67 67 66 65 64 60 64 69 79 80 82 80 82 78
45 47 49 49 47 56 66 68 72 73 77 73 68 62 63 66 70 78 82 85 84 84
40 41 41 44 49 50 61 71 82 82 82 74 68 67 64 63 64 66 67 75 80 85
44 46 48 49 48 48 51 60 67 71 71 71 69 61 58 62 65 65 67 73 77 81
49 50 51 50 50 52 53 53 56 62 63 65 64 61 62 59 62 71 74 78 83 87
53 53 57 55 52 53 58 59 59 62 65 65 65 66 67 73 77 81 85 87 89 93
59 60 62 59 54 56 59 62 64 67 70 71 71 74 81 83 86 87 88 89 90 91

GFSNIL_prec_cthk_087.txt.gz
RH
74 78 81 84 81 77 82 84 85 83 82 73 76 74 69 68 70 70 68 65 64 62
56 60 62 65 67 67 71 73 73 75 77 75 71 68 67 67 65 66 63 58 60 63
51 54 55 59 58 58 59 62 65 65 66 78 66 63 68 65 64 63 60 61 65 73
48 52 55 54 54 57 57 57 58 60 60 65 59 62 68 64 62 62 65 72 77 79
47 51 57 60 60 60 60 63 65 67 60 61 60 61 61 61 64 66 67 70 77 81
46 51 54 56 61 66 65 67 73 73 70 66 61 62 65 70 71 72 75 77 80 79
42 43 49 57 65 63 60 61 65 72 75 75 73 71 73 72 70 71 68 68 71 75
49 47 48 50 53 53 54 56 65 71 68 65 66 66 65 65 64 61 62 67 76 82
56 52 49 45 45 48 52 55 62 67 67 72 73 72 73 79 79 74 70 70 70 72
50 52 51 51 47 44 45 48 54 63 70 76 80 81 85 82 79 77 77 74 69 69
49 48 47 49 49 50 49 46 49 59 71 79 86 86 88 86 87 85 77 70 68 72
52 51 53 55 56 58 56 51 54 57 60 64 70 74 75 75 76 75 68 68 70 73
62 61 61 62 56 55 57 58 58 59 62 64 64 64 66 72 71 72 75 74 78 82
67 67 63 63 66 63 64 66 63 61 63 68 71 72 74 77 77 76 81 83 87 89

GFSNIL_prec_cthk_093.txt.gz
RH
66 84 92 93 89 87 87 88 88 92 92 88 88 90 90 89 92 94 92 92 92 88
52 61 74 79 82 84 84 86 83 82 90 85 85 84 87 89 89 87 87 89 80 75
50 54 56 60 63 66 74 79 80 74 73 74 75 81 83 87 88 84 82 80 73 69
47 50 54 55 57 58 56 59 62 61 59 60 64 71 76 80 78 76 77 71 70 68
46 49 51 53 56 57 54 53 54 55 55 58 62 71 75 80 76 72 73 73 74 72
41 48 50 52 56 61 65 63 59 59 62 67 67 68 74 78 85 89 85 81 78 76
39 43 47 49 50 55 62 65 65 62 60 63 67 72 76 81 77 75 76 77 79 80
41 42 46 49 49 50 53 59 63 65 61 57 60 65 72 77 82 81 81 76 80 81
45 47 45 49 51 53 54 54 55 56 58 58 58 57 61 70 76 78 82 82 79 81
53 53 52 52 53 55 57 59 55 54 57 58 58 60 61 66 72 80 81 83 85 86
56 60 64 63 61 61 58 59 63 60 56 55 52 55 60 66 71 77 86 87 91 94
63 64 67 66 69 72 68 68 66 64 63 64 65 65 66 70 75 77 78 81 83 87
67 64 66 70 76 78 75 69 69 73 73 75 75 74 76 80 80 78 78 79 79 78
73 73 71 73 76 79 77 73 75 79 78 80 84 85 86 86 89 89 86 86 88 84

GFSNIL_prec_cthk_096.txt.gz
RH
59 71 90 90 92 91 92 94 94 94 95 95 95 96 93 92 90 90 88 85 81 83
51 60 73 91 91 91 91 92 95 97 97 96 95 95 93 91 91 90 89 88 88 89
46 51 57 64 72 80 85 88 90 93 97 96 95 94 92 92 92 90 91 94 92 93
43 48 51 55 60 63 67 78 83 84 83 93 90 86 86 88 88 88 93 92 91 94
43 47 48 52 56 58 56 57 65 66 64 68 69 72 75 78 82 86 86 87 86 88
39 47 50 55 58 61 63 59 55 55 57 57 60 64 70 74 76 77 78 79 79 82
37 41 48 53 57 61 65 67 66 65 59 61 61 61 65 68 71 76 79 82 81 82
40 39 42 47 54 55 57 62 67 68 65 61 60 61 63 65 71 73 72 77 85 89
42 45 45 45 49 54 55 56 58 61 65 65 63 62 60 62 65 72 77 83 86 86
52 49 51 53 51 51 54 57 57 59 59 58 60 62 63 65 66 65 67 77 82 82
62 67 64 60 58 56 57 58 61 61 60 60 58 60 63 65 64 61 62 66 69 78
73 70 72 70 67 67 66 66 68 65 66 66 63 61 62 66 67 66 68 69 70 75
75 75 72 73 76 80 78 76 71 76 74 71 72 73 73 71 71 74 72 73 79 82
78 83 84 85 86 82 82 83 87 87 87 81 78 80 83 84 84 83 87 88 89 87